Regional Weather Roundup
Issued by NWS

Home | Current Version | Previous Version | Graphics & Text | Print | Product List | Glossary On
Versions: 1 2 3 4 5 6 7 8 9 10 11 12 13 14 15 16 17 18 19 20 21 22 23 24 25 26 27 28 29 30 31 32 33 34 35 36 37 38 39 40 41 42 43 44 45 46 47 48 49 50
000
ASUS43 KFSD 110610
RWRSD

WEATHER ROUNDUP FOR SOUTH DAKOTA
NATIONAL WEATHER SERVICE SIOUX FALLS SD
100 AM CDT FRI JUL 11 2014

NOTE: "FAIR" INDICATES FEW OR NO CLOUDS BELOW 12,000 FEET WITH NO
SIGNIFICANT WEATHER AND/OR OBSTRUCTIONS TO VISIBILITY.


SDZ001>005-009-010-012>017-110700-
NORTHWEST AND NORTH CENTRAL SOUTH DAKOTA

CITY           SKY/WX    TMP DP  RH WIND       PRES   REMARKS
BUFFALO          N/A     69  65  86 N5        29.85R
FAITH            N/A     69  67  93 S12       29.88R
MOBRIDGE       CLEAR     65  64  97 CALM      29.81S
$$

SDZ012>016-024>037-041>051-057-063-072>074-110700-
SOUTHWEST AND SOUTH CENTRAL SOUTH DAKOTA

CITY           SKY/WX    TMP DP  RH WIND       PRES   REMARKS
RAPID CTY ARPT MOCLDY    69  60  73 NW7       29.92R
PIERRE         PTCLDY    72  68  87 NE3       29.79F
CUSTER         MOCLDY    63  56  78 W5        30.09S
ELLSWORTH AFB  CLOUDY    71  61  70 W3        29.92S
PHILIP         PTCLDY    70  65  84 SW5       29.87R
PINE RIDGE     MOCLDY    66  62  87 NE5       29.93S
WINNER         LGT RAIN  73  65  75 SW7       29.84F
$$

SDZ004>011-016>023-039-040-110700-
NORTHEAST SOUTH DAKOTA

CITY           SKY/WX    TMP DP  RH WIND       PRES   REMARKS
ABERDEEN       PTCLDY    70  68  93 S7        29.82F
WATERTOWN      MOCLDY    73  66  78 S14       29.88F
SISSETON         N/A     72  68  87 S14       29.81F
$$

SDZ017-020-022-023-036>040-048>070-110700-
SOUTHEAST SOUTH DAKOTA

CITY           SKY/WX    TMP DP  RH WIND       PRES   REMARKS
SIOUX FALLS    MOCLDY    75  66  73 S18       29.93F
HURON          PTCLDY    77  67  71 S12G22    29.86R
CHAMBERLAIN    CLOUDY    71  70  96 SE7       29.86F
MITCHELL       HVY RAIN  74  70  87 S25G37    29.94R FOG
YANKTON        CLOUDY    73  64  73 SE9       29.94R
$$

ABBREVIATIONS USED IN REMARKS
   TC - TEMPERATURE IN CELSIUS
  WCI - WIND CHILL INDEX
   HX - HEAT INDEX
  VSB - VISIBILITY



USA.gov is the U.S. government's official web portal to all federal, state and local government web resources and services.